sat.trackr.live / text

‹ back to catalog

STARLINK-34195

NORAD 64142 · 2025-111V

PAYLOAD ACTIVE UNKNOWN

§ Identity

Operator
Country
US
Launch date
2025-05-24
Launch site
AFETR
Launch vehicle
Mass (kg)
RCS (m²)

Purposes: comms

External: N2YO · Heavens-Above · Gunter

§ Orbital elements

Epoch: 2026-05-24T23:31:24.598848Z

Period
94.27 min
Inclination
43.0018°
Eccentricity
0.0001153
Mean motion
15.27588827 rev/d
Perigee alt
482.2 km
Apogee alt
483.8 km
Semi-major
6,861.2 km
B*
4.7413e-4
RAAN
6.7948°
Arg perigee
267.5519°
Mean anomaly
92.5201°
Rev number
5,713

§ Raw data

STARLINK-341951 64142U 25111V   26144.98014582  .00012811  00000+0  47413-3 0  99952 64142  43.0018   6.7948 0001153 267.5519  92.5201 15.27588827 57132

JSON: /api/v1/satellites/64142 · /tle

For live sub-satellite position, see the globe view (requires WebGL).

§ Visibility from observer

Set your observer location to see the next 7 days of passes ≥ 10°. The values pass through the URL so the page stays shareable.

No JS? Fill the form by hand. The geolocation button needs JavaScript.